Time,TemperatureF,DewpointF,PressureIn,WindDirection,WindDirectionDegrees,WindSpeedMPH,WindSpeedGustMPH,Humidity,HourlyPrecipIn,Conditions,Clouds,dailyrainin,SoftwareType,DateUTC
2013-08-03 00:02:00,68.0,57.0,-100.00,NW,325,2.0,5.0,67,0.00,,,0.00,,2013-08-03 04:02:00,
2013-08-03 00:12:00,68.0,57.0,-100.00,NW,325,2.0,5.0,67,0.00,,,0.00,,2013-08-03 04:12:00,
2013-08-03 00:33:00,68.0,57.0,-100.00,NNW,328,3.0,7.0,68,0.00,,,0.00,,2013-08-03 04:33:00,
2013-08-03 00:43:00,68.0,57.0,-100.00,NNW,328,3.0,7.0,68,0.00,,,0.00,,2013-08-03 04:43:00,
2013-08-03 01:02:00,68.0,57.0,-100.00,NW,322,4.0,7.0,66,0.00,,,0.00,,2013-08-03 05:02:00,
2013-08-03 01:32:00,67.0,59.0,-100.00,NNW,344,2.0,7.0,74,0.00,,,0.00,,2013-08-03 05:32:00,
2013-08-03 01:42:00,67.0,59.0,-100.00,NNW,344,2.0,7.0,74,0.00,,,0.00,,2013-08-03 05:42:00,
2013-08-03 01:53:00,68.0,59.0,-100.00,NNW,337,2.0,6.0,71,0.00,,,0.00,,2013-08-03 05:53:00,
2013-08-03 02:02:00,68.0,59.0,-100.00,NNW,337,2.0,6.0,71,0.00,,,0.00,,2013-08-03 06:02:00,
2013-08-03 02:12:00,68.0,57.0,-100.00,NNW,339,2.0,7.0,67,0.00,,,0.00,,2013-08-03 06:12:00,
2013-08-03 02:33:00,71.0,58.0,-100.00,North,356,2.0,6.0,63,0.00,,,0.00,,2013-08-03 06:33:00,
2013-08-03 03:02:00,70.0,59.0,-100.00,NNW,347,2.0,7.0,67,0.00,,,0.00,,2013-08-03 07:02:00,
2013-08-03 03:12:00,70.0,59.0,-100.00,NNW,347,2.0,7.0,67,0.00,,,0.00,,2013-08-03 07:12:00,
2013-08-03 03:32:00,68.0,58.0,-100.00,NNW,339,2.0,9.0,69,0.00,,,0.00,,2013-08-03 07:32:00,
2013-08-03 03:43:00,68.0,58.0,-100.00,NNW,339,2.0,9.0,69,0.00,,,0.00,,2013-08-03 07:43:00,
2013-08-03 03:53:00,69.0,58.0,-100.00,NNW,337,1.0,5.0,69,0.00,,,0.00,,2013-08-03 07:53:00,
2013-08-03 04:02:00,68.0,59.0,-100.00,NW,326,3.0,7.0,73,0.00,,,0.00,,2013-08-03 08:02:00,
2013-08-03 04:12:00,68.0,59.0,-100.00,NW,326,3.0,7.0,73,0.00,,,0.00,,2013-08-03 08:12:00,
2013-08-03 04:32:00,69.0,59.0,-100.00,North,7,1.0,9.0,72,0.00,,,0.00,,2013-08-03 08:32:00,
2013-08-03 04:43:00,69.0,59.0,-100.00,North,7,1.0,9.0,72,0.00,,,0.00,,2013-08-03 08:43:00,
2013-08-03 05:02:00,68.0,59.0,-100.00,NNW,340,1.0,4.0,73,0.00,,,0.00,,2013-08-03 09:02:00,
2013-08-03 05:12:00,68.0,59.0,-100.00,NNW,340,1.0,4.0,73,0.00,,,0.00,,2013-08-03 09:12:00,
2013-08-03 05:32:00,68.0,59.0,-100.00,NNW,337,3.0,9.0,73,0.00,,,0.00,,2013-08-03 09:32:00,
2013-08-03 05:43:00,68.0,59.0,-100.00,NNW,337,3.0,9.0,73,0.00,,,0.00,,2013-08-03 09:43:00,
2013-08-03 06:02:00,66.0,60.0,-100.00,NNW,330,3.0,6.0,81,0.00,,,0.00,,2013-08-03 10:02:00,
2013-08-03 06:12:00,66.0,60.0,-100.00,NNW,330,3.0,6.0,81,0.00,,,0.00,,2013-08-03 10:12:00,
2013-08-03 06:32:00,67.0,59.0,-100.00,NNW,332,3.0,9.0,75,0.00,,,0.00,,2013-08-03 10:32:00,
2013-08-03 06:43:00,67.0,59.0,-100.00,NNW,332,3.0,9.0,75,0.00,,,0.00,,2013-08-03 10:43:00,
2013-08-03 06:53:00,67.0,59.0,-100.00,NNW,328,3.0,8.0,75,0.00,,,0.00,,2013-08-03 10:53:00,
2013-08-03 07:02:00,67.0,60.0,-100.00,NNW,332,3.0,7.0,77,0.00,,,0.00,,2013-08-03 11:02:00,
2013-08-03 07:12:00,67.0,60.0,-100.00,NNW,332,3.0,7.0,77,0.00,,,0.00,,2013-08-03 11:12:00,
2013-08-03 07:32:00,66.0,60.0,-100.00,NNW,330,2.0,5.0,79,0.00,,,0.00,,2013-08-03 11:32:00,
2013-08-03 07:43:00,66.0,60.0,-100.00,NNW,330,2.0,5.0,79,0.00,,,0.00,,2013-08-03 11:43:00,
2013-08-03 07:53:00,67.0,60.0,-100.00,NNW,333,1.0,5.0,80,0.00,,,0.00,,2013-08-03 11:53:00,
2013-08-03 08:02:00,67.0,60.0,-100.00,NW,326,2.0,4.0,78,0.00,,,0.00,,2013-08-03 12:02:00,
2013-08-03 08:12:00,67.0,60.0,-100.00,NW,326,2.0,4.0,78,0.00,,,0.00,,2013-08-03 12:12:00,
2013-08-03 08:33:00,66.0,59.0,-100.00,NNW,336,0.0,0.0,79,0.01,,,0.00,,2013-08-03 12:33:00,
2013-08-03 08:43:00,66.0,59.0,-100.00,NNW,336,0.0,0.0,79,0.01,,,0.00,,2013-08-03 12:43:00,
2013-08-03 09:02:00,67.0,61.0,-100.00,NNE,32,0.0,2.0,81,0.00,,,0.01,,2013-08-03 13:02:00,
2013-08-03 09:12:00,67.0,61.0,-100.00,NNE,32,0.0,2.0,81,0.00,,,0.01,,2013-08-03 13:12:00,
2013-08-03 09:22:00,67.0,60.0,-100.00,NE,40,0.0,1.0,78,0.00,,,0.01,,2013-08-03 13:22:00,
2013-08-03 09:33:00,67.0,61.0,-100.00,NNE,27,1.0,3.0,81,0.00,,,0.01,,2013-08-03 13:33:00,
2013-08-03 09:43:00,67.0,61.0,-100.00,NNE,27,1.0,3.0,81,0.00,,,0.01,,2013-08-03 13:43:00,
2013-08-03 09:52:00,67.0,61.0,-100.00,North,353,1.0,3.0,81,0.00,,,0.01,,2013-08-03 13:52:00,
2013-08-03 10:02:00,67.0,62.0,-100.00,NNW,332,2.0,4.0,84,0.00,,,0.01,,2013-08-03 14:02:00,
2013-08-03 10:12:00,67.0,62.0,-100.00,NNW,332,2.0,4.0,84,0.00,,,0.01,,2013-08-03 14:12:00,
2013-08-03 10:22:00,68.0,63.0,-100.00,NW,316,3.0,6.0,85,0.00,,,0.01,,2013-08-03 14:22:00,
2013-08-03 10:33:00,68.0,62.0,-100.00,NW,325,1.0,3.0,80,0.00,,,0.01,,2013-08-03 14:33:00,
2013-08-03 10:42:00,68.0,62.0,-100.00,NW,325,1.0,3.0,80,0.00,,,0.01,,2013-08-03 14:42:00,
2013-08-03 10:52:00,69.0,63.0,-100.00,NW,325,2.0,4.0,83,0.00,,,0.01,,2013-08-03 14:52:00,
2013-08-03 11:02:00,69.0,63.0,-100.00,NW,325,2.0,4.0,83,0.00,,,0.01,,2013-08-03 15:02:00,
2013-08-03 11:12:00,69.0,63.0,-100.00,NW,325,2.0,4.0,83,0.00,,,0.01,,2013-08-03 15:12:00,
2013-08-03 11:32:00,69.0,62.0,-100.00,North,354,1.0,2.0,79,0.00,,,0.01,,2013-08-03 15:32:00,
2013-08-03 11:43:00,69.0,62.0,-100.00,North,354,1.0,2.0,79,0.00,,,0.01,,2013-08-03 15:43:00,
2013-08-03 11:53:00,70.0,63.0,-100.00,North,353,0.0,2.0,79,0.00,,,0.01,,2013-08-03 15:53:00,
2013-08-03 12:02:00,68.0,62.0,-100.00,NNE,13,0.0,1.0,83,0.16,,,0.04,,2013-08-03 16:02:00,
2013-08-03 12:13:00,68.0,62.0,-100.00,NNE,13,0.0,1.0,83,0.16,,,0.04,,2013-08-03 16:13:00,
2013-08-03 12:33:00,68.0,65.0,-100.00,North,6,0.0,2.0,90,0.00,,,0.06,,2013-08-03 16:33:00,
2013-08-03 12:43:00,68.0,65.0,-100.00,North,6,0.0,2.0,90,0.00,,,0.06,,2013-08-03 16:43:00,
2013-08-03 12:53:00,69.0,66.0,-100.00,NNW,328,2.0,5.0,90,0.00,,,0.06,,2013-08-03 16:53:00,
2013-08-03 13:03:00,69.0,65.0,-100.00,NNW,329,2.0,3.0,89,0.00,,,0.06,,2013-08-03 17:03:00,
2013-08-03 13:12:00,69.0,65.0,-100.00,NNW,329,2.0,3.0,89,0.00,,,0.06,,2013-08-03 17:12:00,
2013-08-03 13:32:00,68.0,65.0,-100.00,NNW,328,3.0,5.0,91,0.00,,,0.07,,2013-08-03 17:32:00,
2013-08-03 13:43:00,68.0,65.0,-100.00,NNW,328,3.0,5.0,91,0.00,,,0.07,,2013-08-03 17:43:00,
2013-08-03 13:52:00,68.0,65.0,-100.00,NNW,328,3.0,5.0,91,0.00,,,0.07,,2013-08-03 17:52:00,
2013-08-03 14:02:00,70.0,67.0,-100.00,NW,318,3.0,5.0,92,0.00,,,0.07,,2013-08-03 18:02:00,
2013-08-03 14:12:00,70.0,67.0,-100.00,NW,318,3.0,5.0,92,0.00,,,0.07,,2013-08-03 18:12:00,
2013-08-03 14:32:00,70.0,67.0,-100.00,NNW,328,2.0,5.0,91,0.03,,,0.08,,2013-08-03 18:32:00,
2013-08-03 14:43:00,70.0,67.0,-100.00,NNW,328,2.0,5.0,91,0.03,,,0.08,,2013-08-03 18:43:00,
2013-08-03 14:53:00,70.0,67.0,-100.00,NNW,335,2.0,6.0,91,0.03,,,0.08,,2013-08-03 18:53:00,
2013-08-03 15:02:00,69.0,65.0,-100.00,North,349,1.0,3.0,88,0.00,,,0.09,,2013-08-03 19:02:00,
2013-08-03 15:12:00,69.0,65.0,-100.00,North,349,1.0,3.0,88,0.00,,,0.09,,2013-08-03 19:12:00,
2013-08-03 15:32:00,69.0,66.0,-100.00,North,353,1.0,3.0,89,0.00,,,0.09,,2013-08-03 19:32:00,
2013-08-03 15:43:00,69.0,66.0,-100.00,North,353,1.0,3.0,89,0.00,,,0.09,,2013-08-03 19:43:00,
2013-08-03 15:53:00,69.0,66.0,-100.00,NNW,332,2.0,4.0,92,0.07,,,0.09,,2013-08-03 19:53:00,
2013-08-03 16:02:00,69.0,67.0,-100.00,NW,323,2.0,4.0,91,0.04,,,0.11,,2013-08-03 20:02:00,
2013-08-03 16:12:00,69.0,67.0,-100.00,NW,323,2.0,4.0,91,0.04,,,0.11,,2013-08-03 20:12:00,
2013-08-03 16:32:00,68.0,66.0,-100.00,NW,322,3.0,7.0,91,0.16,,,0.13,,2013-08-03 20:32:00,
2013-08-03 16:42:00,68.0,66.0,-100.00,NW,322,3.0,7.0,91,0.16,,,0.13,,2013-08-03 20:42:00,
2013-08-03 16:52:00,68.0,66.0,-100.00,NW,326,3.0,6.0,92,0.07,,,0.14,,2013-08-03 20:52:00,
2013-08-03 17:02:00,68.0,65.0,-100.00,NW,316,5.0,7.0,91,0.00,,,0.15,,2013-08-03 21:02:00,
2013-08-03 17:12:00,68.0,65.0,-100.00,NW,316,5.0,7.0,91,0.00,,,0.15,,2013-08-03 21:12:00,
2013-08-03 17:32:00,67.0,65.0,-100.00,NW,322,4.0,7.0,93,0.00,,,0.15,,2013-08-03 21:32:00,
2013-08-03 17:42:00,67.0,65.0,-100.00,NW,322,4.0,7.0,93,0.00,,,0.15,,2013-08-03 21:42:00,
2013-08-03 17:52:00,67.0,65.0,-100.00,NNW,330,3.0,5.0,94,0.00,,,0.15,,2013-08-03 21:52:00,
2013-08-03 18:02:00,67.0,65.0,-100.00,NW,322,3.0,5.0,93,0.00,,,0.15,,2013-08-03 22:02:00,
2013-08-03 18:12:00,67.0,65.0,-100.00,NW,322,3.0,5.0,93,0.00,,,0.15,,2013-08-03 22:12:00,
2013-08-03 18:33:00,67.0,64.0,-100.00,North,360,0.0,2.0,92,0.00,,,0.15,,2013-08-03 22:33:00,
2013-08-03 18:43:00,67.0,64.0,-100.00,NNW,344,0.0,2.0,92,0.00,,,0.15,,2013-08-03 22:43:00,
2013-08-03 18:52:00,67.0,64.0,-100.00,NNW,347,0.0,0.0,91,0.00,,,0.15,,2013-08-03 22:52:00,
2013-08-03 19:02:00,66.0,63.0,-100.00,NNW,336,1.0,2.0,92,0.00,,,0.15,,2013-08-03 23:02:00,
2013-08-03 19:12:00,66.0,63.0,-100.00,NNW,336,1.0,2.0,92,0.00,,,0.15,,2013-08-03 23:12:00,
2013-08-03 19:32:00,65.0,64.0,-100.00,NNW,329,2.0,4.0,94,0.04,,,0.15,,2013-08-03 23:32:00,
2013-08-03 19:43:00,65.0,64.0,-100.00,NNW,329,2.0,4.0,94,0.04,,,0.15,,2013-08-03 23:43:00,
2013-08-03 19:52:00,66.0,64.0,-100.00,NNW,330,2.0,4.0,95,0.00,,,0.16,,2013-08-03 23:52:00,
2013-08-03 20:03:00,66.0,64.0,-100.00,NNW,329,3.0,7.0,95,0.00,,,0.16,,2013-08-04 00:03:00,
2013-08-03 20:12:00,66.0,64.0,-100.00,NNW,329,3.0,7.0,95,0.00,,,0.16,,2013-08-04 00:12:00,
2013-08-03 20:32:00,66.0,65.0,-100.00,NNW,328,3.0,7.0,96,0.28,,,0.24,,2013-08-04 00:32:00,
2013-08-03 20:42:00,66.0,65.0,-100.00,NNW,328,3.0,7.0,96,0.28,,,0.24,,2013-08-04 00:42:00,
2013-08-03 20:53:00,66.0,65.0,-100.00,NW,320,4.0,8.0,96,0.23,,,0.30,,2013-08-04 00:53:00,
2013-08-03 21:02:00,66.0,65.0,-100.00,NNW,335,2.0,7.0,96,0.07,,,0.33,,2013-08-04 01:02:00,
2013-08-03 21:12:00,66.0,65.0,-100.00,NNW,335,2.0,7.0,96,0.07,,,0.33,,2013-08-04 01:12:00,
2013-08-03 21:32:00,65.0,64.0,-100.00,East,85,1.0,5.0,96,0.00,,,0.34,,2013-08-04 01:32:00,
2013-08-03 21:42:00,65.0,64.0,-100.00,East,85,1.0,5.0,96,0.00,,,0.34,,2013-08-04 01:42:00,
2013-08-03 21:53:00,65.0,64.0,-100.00,North,10,1.0,4.0,96,0.00,,,0.34,,2013-08-04 01:53:00,
2013-08-03 22:03:00,65.0,64.0,-100.00,NNW,330,2.0,4.0,96,0.00,,,0.34,,2013-08-04 02:03:00,
2013-08-03 22:12:00,65.0,64.0,-100.00,NNW,330,2.0,4.0,96,0.00,,,0.34,,2013-08-04 02:12:00,
2013-08-03 22:32:00,65.0,64.0,-100.00,NNW,329,2.0,6.0,96,0.00,,,0.34,,2013-08-04 02:32:00,
2013-08-03 22:42:00,65.0,64.0,-100.00,NNW,329,2.0,6.0,96,0.00,,,0.34,,2013-08-04 02:42:00,
2013-08-03 22:52:00,65.0,64.0,-100.00,NW,325,2.0,5.0,97,0.00,,,0.34,,2013-08-04 02:52:00,
2013-08-03 23:02:00,65.0,64.0,-100.00,NW,326,4.0,8.0,96,0.00,,,0.34,,2013-08-04 03:02:00,
2013-08-03 23:12:00,65.0,64.0,-100.00,NW,326,4.0,8.0,96,0.00,,,0.34,,2013-08-04 03:12:00,
2013-08-03 23:32:00,65.0,64.0,-100.00,NNW,340,2.0,6.0,97,0.00,,,-99.99,,2013-08-04 03:32:00,
2013-08-03 23:42:00,65.0,64.0,-100.00,NNW,340,2.0,6.0,97,0.00,,,-99.99,,2013-08-04 03:42:00,
2013-08-03 23:52:00,65.0,63.0,-100.00,NNW,333,2.0,10.0,96,0.00,,,-99.99,,2013-08-04 03:52:00,